Weather History for Ahmedabad, India

Change the Weather History Date:

Wednesday, April 3, 2013

  Actual Average Record
Temperature  
Mean Temperature 84 °F -  
Max Temperature 95 °F 100 °F 111 °F (1998)
Min Temperature 72 °F 74 °F 64 °F (2007)
Cooling Degree Days 18    
Growing Degree Days 34 (Base 50)    
Moisture  
Dew Point 62 °F    
Average Humidity 45    
Maximum Humidity 73    
Minimum Humidity 15    
Precipitation  
Precipitation 0.00 in 0.01 in - ()
Sea Level Pressure  
Sea Level Pressure 29.81 in    
Wind  
Wind Speed 6 mph ()    
Max Wind Speed 12 mph    
Max Gust Speed -    
Visibility 2.8 miles    
Events      
Averages and records for this station are not official NWS values.
T = Trace of Precipitation, MM = Missing Value Source: Averaged Metar Reports

Daily Weather History Graph

Daily Weather History Graph

Search for Another Location

Airport:

Trip Planner

Search our weather history database for the weather conditions in past years. The results will help you decide how hot, cold, wet, or windy it might be!

Date:

Astronomy

Apr. 03, 2013 Rise Set
Actual Time 6:30 AM IST 6:55 PM IST
Civil Twilight 6:07 AM IST 7:18 PM IST
Nautical Twilight 5:41 AM IST 7:44 PM IST
Astronomical Twilight 5:14 AM IST 8:11 PM IST
Moon 1:03 AM IST (4/3) 12:21 PM IST (4/3)
Length of Visible Light 13h 10m
Length of Day
12h 25m
Waning Gibbous, 49% of the Moon is Illuminated
Apr 3
Waning Gibbous
Apr 10
New
Apr 18
First Quarter
Apr 26
Full
May 2
Last Quarter

Hourly Weather History & Observations

Time (IST) Temp. Heat Index Dew Point Humidity Pressure Visibility Wind Dir Wind Speed Gust Speed Precip Events Conditions
12:10 AM 82.4 °F 82.9 °F 60.8 °F 48% 29.80 in 2.5 mi WNW 4.6 mph - N/A   Smoke
12:40 AM 82.4 °F 82.9 °F 60.8 °F 48% 29.80 in 2.5 mi West 9.2 mph - N/A   Smoke
1:10 AM 80.6 °F 81.5 °F 60.8 °F 51% 29.80 in 2.5 mi West 6.9 mph - N/A   Smoke
1:40 AM 80.6 °F 81.1 °F 59.0 °F 48% 29.80 in 2.5 mi West 9.2 mph - N/A   Smoke
2:10 AM 80.6 °F 81.5 °F 60.8 °F 51% 29.80 in 2.5 mi West 5.8 mph - N/A   Smoke
2:30 AM 77 °F - 58 °F 41% 29.82 in 2 mi West 6.9 mph - -  
2:40 AM 78.8 °F - 60.8 °F 54% 29.80 in 2.5 mi WNW 8.1 mph - N/A   Smoke
3:10 AM 78.8 °F - 60.8 °F 54% 29.80 in 2.5 mi WNW 8.1 mph - N/A   Smoke
3:40 AM 78.8 °F - 60.8 °F 54% 29.80 in 2.5 mi West 6.9 mph - N/A   Smoke
4:10 AM 77.0 °F - 62.6 °F 61% 29.80 in 2.5 mi SW 9.2 mph - N/A   Haze
4:40 AM 77.0 °F - 62.6 °F 61% 29.80 in 2.5 mi SW 10.4 mph - N/A   Haze
5:10 AM 75.2 °F - 64.4 °F 69% 29.80 in 2.5 mi SSW 10.4 mph - N/A   Haze
5:30 AM 74 °F - 62 °F 59% 29.82 in 2 mi West 5.8 mph - -   Haze
5:40 AM 73.4 °F - 62.6 °F 69% 29.80 in 2.5 mi WSW 8.1 mph - N/A   Haze
6:10 AM 73.4 °F - 62.6 °F 69% 29.83 in 2.5 mi West 8.1 mph - N/A   Haze
6:40 AM 71.6 °F - 62.6 °F 73% 29.83 in 2.2 mi West 6.9 mph - N/A   Haze
7:10 AM 75.2 °F - 60.8 °F 61% 29.83 in 2.2 mi WSW 5.8 mph - N/A   Haze
7:40 AM 78.8 °F - 68.0 °F 69% 29.83 in 2.2 mi West 10.4 mph - N/A   Haze
8:10 AM 82.4 °F 86.3 °F 69.8 °F 66% 29.86 in 2.2 mi West 8.1 mph - N/A   Haze
8:30 AM 78 °F - 65 °F 55% 29.86 in 2 mi Calm Calm - -   Haze
9:40 AM 87.8 °F 93.8 °F 71.6 °F 58% 29.86 in 3.1 mi WNW 6.9 mph - N/A   Smoke
10:10 AM 89.6 °F 96.2 °F 71.6 °F 55% 29.86 in 3.7 mi West 6.9 mph - N/A   Unknown
10:40 AM 91.4 °F 98.4 °F 71.6 °F 52% 29.86 in 3.7 mi WNW 8.1 mph - N/A   Unknown
11:10 AM 91.4 °F 94.0 °F 66.2 °F 43% 29.86 in 3.7 mi West 9.2 mph - N/A   Unknown
11:30 AM 90 °F - 62 °F 29% 29.87 in 2 mi SW 3.5 mph - -   Partly Cloudy
11:40 AM 91.4 °F 93.2 °F 64.4 °F 41% 29.86 in 3.7 mi WNW 10.4 mph - N/A   Unknown
12:10 PM 93.2 °F 96.2 °F 66.2 °F 41% 29.86 in 3.7 mi WNW 11.5 mph - N/A   Unknown
1:10 PM 95.0 °F 98.5 °F 66.2 °F 39% 29.83 in 3.7 mi West 10.4 mph - N/A   Partly Cloudy
1:40 PM 95.0 °F 98.5 °F 66.2 °F 39% 29.83 in 3.7 mi West 9.2 mph - N/A   Partly Cloudy
2:10 PM 95.0 °F 98.5 °F 66.2 °F 39% 29.80 in 3.7 mi West 6.9 mph - N/A   Partly Cloudy
2:30 PM 94 °F - 59 °F 21% 29.81 in 2 mi SW 5.8 mph - -   Scattered Clouds
2:40 PM 96.8 °F 100.7 °F 66.2 °F 37% 29.80 in 3.7 mi West 6.9 mph - N/A   Partly Cloudy
3:10 PM 96.8 °F 99.0 °F 64.4 °F 34% 29.77 in 3.7 mi West 5.8 mph - N/A   Partly Cloudy
3:40 PM 96.8 °F 99.0 °F 64.4 °F 34% 29.77 in 3.7 mi WSW 4.6 mph - N/A   Partly Cloudy
4:10 PM 96.8 °F 99.0 °F 64.4 °F 34% 29.74 in 3.7 mi WSW 4.6 mph - N/A   Partly Cloudy
4:40 PM 95.0 °F 96.0 °F 62.6 °F 34% 29.74 in 3.7 mi SSE 3.5 mph - N/A   Partly Cloudy
5:10 PM 95.0 °F 96.0 °F 62.6 °F 34% 29.74 in 3.7 mi West 6.9 mph - N/A   Unknown
5:30 PM 94 °F - 52 °F 15% 29.77 in 2 mi WSW 3.5 mph - -  
5:40 PM 95.0 °F 94.4 °F 59.0 °F 30% 29.77 in 3.7 mi West 3.5 mph - N/A   Unknown
6:10 PM 95.0 °F 93.7 °F 57.2 °F 28% 29.77 in 3.7 mi West 5.8 mph - N/A   Unknown
6:40 PM 95.0 °F 93.7 °F 57.2 °F 28% 29.77 in 3.7 mi West 5.8 mph - N/A   Unknown
7:10 PM 91.4 °F 89.9 °F 57.2 °F 31% 29.77 in 3.1 mi West 4.6 mph - N/A   Smoke
7:40 PM 89.6 °F 88.1 °F 57.2 °F 33% 29.77 in 2.5 mi West 4.6 mph - N/A   Smoke
8:10 PM 89.6 °F 88.1 °F 57.2 °F 33% 29.80 in 2.5 mi Variable 3.5 mph - N/A   Smoke
8:30 PM 82 °F - 56 °F 31% 29.81 in 2 mi SW 3.5 mph - -  
8:40 PM 86.0 °F 84.2 °F 53.6 °F 33% 29.80 in 2.5 mi WNW 3.5 mph - N/A   Smoke
9:10 PM 82.4 °F 81.7 °F 55.4 °F 39% 29.80 in 2.5 mi WNW 3.5 mph - N/A   Smoke
9:40 PM 82.4 °F 82.0 °F 57.2 °F 42% 29.83 in 2.5 mi SSE 3.5 mph - N/A   Smoke
10:10 PM 82.4 °F 82.0 °F 57.2 °F 42% 29.83 in 2.5 mi SSW 4.6 mph - N/A   Smoke
10:40 PM 82.4 °F 82.0 °F 57.2 °F 42% 29.83 in 2.5 mi WSW 4.6 mph - N/A   Smoke
11:10 PM 82.4 °F 82.5 °F 59.0 °F 45% 29.83 in 2.5 mi WSW 4.6 mph - N/A   Smoke
11:30 PM 81 °F - 63 °F 44% 29.85 in 2 mi SW 4.6 mph - -  
11:40 PM 82.4 °F 82.9 °F 60.8 °F 48% 29.83 in 2.5 mi SW 4.6 mph - N/A   Smoke